PEGASUS DEB, 39309

Orbit data source: Space-Track

PEGASUS DEB, 39309 is space debris in LEO originally from a launch on Thu, 19 May 1994 UTC launched from the Air Force Western Test Range (AFWTR). Debris objects in space refer to the collection of defunct objects orbiting the Earth. Examples of debris include non-operational satellites, rocket bodies, and fragments generated from explosions, collisions, or faulty payload assembly.

Loading next visibility...
Identifier
39309, 1994-029AEU
Orbit
LEO
Country
Flag of USUS
Related business
Manufacturer
Unknown
Mission
Spacecraft
Bus & Motor
Unknown
Mass
Unknown
Launch date (UTC)
1994-05-19 (32 years ago)
Launch vehicle
Unknown
Launch site
Air Force Western Test Range (AFWTR)
Object type
Payload
Rocket body
Debris
Shape & HBR
Unknown shape, 0.1 m
Radar Cross Section
Small (<0.1 m²)

Expand to show TLE details & history
Last TLE update: 5 days ago

TLE from 5 days ago
0 PEGASUS DEB
1 39309U 94029AEU 26115.25607794  .00001696  00000-0  32515-3 0  9994
2 39309  81.7362 306.7773 0231790 358.8176   1.2436 14.47512737730014
Epoch: 2026-04-25T06:08Z
TLE epoch observation values (Epoch: 2026-04-25T06:08:45.134Z)
Latitude
-0°
Longitude
1.31218°
Altitude
571.911 km
Speed
7.662 km/s
True Right ascension
20h 27m 06s
True Declination
0° 00' 00"
Sunlit
Object was in daylight at epoch
Visualization orbit readout
Latitude
Unknown
Longitude
Unknown
Altitude
Unknown
Speed
Unknown
Apparent Right ascension
Unknown
Apparent Declination
Unknown
Sunlit
N/A
Visualization observer readout
Local Sidereal Time
11:06:41
Azimuth
Unknown
Elevation
Unknown
Doppler factor
Unknown
Orbital elements
Apogee altitude
895.662 km
Perigee altitude
566.102 km
Semi-major axis
7,109.019 km
Eccentricity
0.02318
Inclination
81.7362°
RAAN
306.7773°
Arg. of periapsis
358.8176°
True anomaly
1.30296°
Mean anomaly
1.2436°
Eccentric anomaly
1.27311°
Mean motion
3.621 °/min
Orbital period
99.42 mins
BSTAR
0.00032515
Loading maneuver chart data...
Computing Atmospheric mass density...

Documentation

Showing up to 5 results
|